Main page
METAR-TAF:

METAR-TAF

Airports :

Eagle Creek Airpark

Indianapolis, Indiana, United States

latitude: 39-49-30N, longitude: 086-17-45W, elevation: 820 ft

Current weather observation

The report was made 18 minutes ago, at 03:53 UTC
Wind 7 mph from the West/Southwest
Temperature 77°F
Humidity 47%
Pressure 29.95 in. Hg
Visibility: 10 miles
Clear sky

METAR: KEYE 030353Z AUTO 24006KT 10SM CLR 25/13 A2995 RMK AO2 SLP134 T02500128

Time: 00:11 (04:11 UTC)


TAF: missing

Weather observations and forecasts of more than 4000 airports (METAR and TAF reports).

The available stations are represented by yellow and red dots on the map.

Hover mouse over dot to see the name of the station.

Then click to see weather observations and forecasts.

To change the map : click on the green buttons with a black cross to zoom in, on the green button with a dash to zoom out, or on the green arrows for adjacent maps.


METAR-TAF: